Location: Unspecified
(0.0000°N, 0.0000°E)
Time: 12:31:19
(UTC+00:00)

Vanguard 2 Rocket - Pass Details

Date: 12 December 2017
Orbit: 556 x 3326 km, 32.9° (Epoch: 21 January)

Event Time Altitude Azimuth Distance (km) Brightness Sun altitude
Exits shadow 03:31:52 46° 323° (NW) 3,312 9.2 -32.2°
Maximum altitude 03:38:00 74° 34° (NE) 2,391 8.8 -30.9°
Drops below altitude 10° 03:48:40 10° 117° (ESE) 3,801 11.0 -28.5°
Sets 03:51:09 0° 119° (ESE) 4,496 11.7 -27.9°
